Location: Unspecified
(0.0000°N, 0.0000°E)
Time: 19:56:17
(UTC+00:00)

ARIANE 1 DEB - Pass Details

Date: 15 February 2026
Orbit: 376 x 19604 km, 19.8° (Epoch: 20 January)

Event Time Altitude Azimuth Distance (km) Brightness Sun altitude
Rises 05:26:45 0° 226° (SW) 3,450 ? -11.6°
Reaches altitude 10° 05:28:33 10° 216° (SW) 2,975 ? -11.1°
Maximum altitude 05:35:42 39° 146° (SE) 3,210 ? -9.4°
Drops below altitude 10° 06:18:26 10° 83° (E) 14,882 ? 1.0°
Sets 07:22:41 0° 74° (ENE) 23,517 ? 16.7°
